Powrót do katalogu

JIAOTONG VDES B

AktywnyNaukaPO
NORAD 66914·PAYLOAD·🇨🇳 China
Ta nazwa satelity nie została jeszcze potwierdzona przez oficjalne źródła.

Wystrzelony Dec 5, 2025 z Jiuquan Satellite Launch Center

Loading…

Następne Przeloty (najbliższe 24 godziny)

TLE

ŚwieżeSource: Space-Track

Epoka: Sep 14, 2026, 06:19 UTC

1 66914U 25284B   26257.26372238  .00000105  00000-0  68409-4 0  9999
2 66914  80.3995 196.1877 0011951   1.8838 358.2366 13.97341149 39924

Śledź JIAOTONG VDES B w czasie rzeczywistym z AllMySat

Download on the App Store